Rome Urbe Air Force Base, Italy

8:13 PM CEST on August 27, 2016 (GMT +0200)
Urbe

Weather History for LIRU - December, 2012

Change the Weather History Date:

Tuesday, December 18, 2012

  Actual Average Record
Temperature  
Mean Temperature 43 °F -  
Max Temperature 51 °F 54 °F 62 °F (1996)
Min Temperature 35 °F 36 °F 15 °F (2007)
Degree Days  
Heating Degree Days 22    
Moisture  
Dew Point 42 °F    
Average Humidity 96    
Maximum Humidity 100    
Minimum Humidity 76    
Precipitation  
Precipitation 0.00 in 0.11 in - ()
Sea Level Pressure  
Sea Level Pressure 29.85 in    
Wind  
Wind Speed 2 mph ()    
Max Wind Speed 8 mph    
Max Gust Speed -    
Visibility 2.7 miles    
Events Fog    
Averages and records for this station are not official NWS values.
T = Trace of Precipitation, MM = Missing Value Source: Averaged Metar Reports

Daily Weather History Graph

Daily Weather History Graph

Search for Another Location

Airport or City:

Trip Planner

Search our weather history database for the weather conditions in past years. The results will help you decide how hot, cold, wet, or windy it might be!

Date:

Astronomy

Dec. 18, 2012 Rise Set
Actual Time 7:32 AM CET 4:40 PM CET
Civil Twilight 7:01 AM CET 5:12 PM CET
Nautical Twilight 6:26 AM CET 5:47 PM CET
Astronomical Twilight 5:52 AM CET 6:21 PM CET
Moon 10:59 AM CET (12/18) 10:54 PM CET (12/18)
Length of Visible Light 10h 11m
Length of Day
9h 07m
Waxing Crescent, 32% of the Moon is Illuminated
Dec 18
Waxing Crescent
Dec 20
First Quarter
Dec 28
Full
Jan 5
Last Quarter
Jan 11
New

Hourly Weather History & Observations

Time (CET) Temp. Windchill Dew Point Humidity Pressure Visibility Wind Dir Wind Speed Gust Speed Precip Events Conditions
7:25 AM 35.6 °F - 35.6 °F 100% 29.83 in 0.1 mi Variable 2.3 mph - N/A Fog Fog
7:50 AM 35.6 °F 32.8 °F 35.6 °F 100% 29.83 in 0.1 mi Variable 3.5 mph - N/A Fog Fog
8:50 AM 39.2 °F - 39.2 °F 100% 29.83 in 0.1 mi Variable 2.3 mph - N/A Fog Fog
9:50 AM 41.0 °F - 41.0 °F 100% 29.86 in 0.2 mi Variable 2.3 mph - N/A Fog Fog
10:17 AM 41.0 °F 39.0 °F 41.0 °F 100% 29.86 in 0.5 mi Variable 3.5 mph - N/A Fog Fog
10:50 AM 42.8 °F 41.1 °F 42.8 °F 100% 29.86 in 0.6 mi Variable 3.5 mph - N/A   Partly Cloudy
11:15 AM 42.8 °F - 42.8 °F 100% 29.86 in 0.9 mi Variable 2.3 mph - N/A   Partly Cloudy
11:50 AM 42.8 °F 40.1 °F 42.8 °F 100% 29.83 in 1.2 mi ENE 4.6 mph - N/A   Scattered Clouds
12:06 PM 44.6 °F - 44.6 °F 100% 29.86 in 1.9 mi Variable 2.3 mph - N/A   Scattered Clouds
12:50 PM 46.4 °F - 46.4 °F 100% 29.83 in 3.1 mi Variable 2.3 mph - N/A   Scattered Clouds
1:30 PM 48.2 °F - 46.4 °F 93% 29.83 in 5.0 mi Variable 3.5 mph - N/A   Partly Cloudy
1:50 PM 50.0 °F - 46.4 °F 87% 29.83 in 5.0 mi Variable 3.5 mph - N/A   Partly Cloudy
2:50 PM 50.0 °F - 44.6 °F 82% 29.80 in 6.2 mi Variable 1.2 mph - N/A   Partly Cloudy
3:50 PM 51.8 °F - 44.6 °F 76% 29.80 in 6.2 mi North 8.1 mph - N/A   Partly Cloudy
4:50 PM 48.2 °F - 44.6 °F 87% 29.83 in - NNW 4.6 mph - N/A   Clear
5:50 PM 42.8 °F - 41.0 °F 93% 29.83 in - Calm Calm - N/A   Clear
6:50 PM 41.0 °F - 41.0 °F 100% 29.86 in 5.0 mi Variable 1.2 mph - N/A   Unknown
7:50 PM 39.2 °F - 39.2 °F 100% 29.89 in 5.0 mi Variable 1.2 mph - N/A Fog Fog
8:50 PM 39.2 °F - 39.2 °F 100% 29.89 in 3.7 mi Variable 1.2 mph - N/A Fog Fog
9:50 PM 39.2 °F - 39.2 °F 100% 29.89 in 3.7 mi Variable 1.2 mph - N/A Fog Fog